STARLINK-33803, 63517

Orbit data source: Space-Track

STARLINK-33803, 63517 is a payload satellite owned by SpaceX/Seattle (US) in LEO that was launched on Mon, 07 Apr 2025 UTC via an FALCON 9 launch vehicle from the Air Force Western Test Range (AFWTR). Payload-class satellites include a variety of spacecraft equipped with specific instruments for various scientific and technological missions. These include communications satellites like Starlink; space stations such as the ISS; scientific satellites like the Hubble; Earth observation satellites from companies like Planet Labs, Umbra, and HawkEye 360; GPS; miniature CubeSats for education and research; and military/defense satellites.

Loading next visibility...
Identifier
63517, 2025-071AA
Orbit
LEO
Country
Flag of USUS
Related business
Manufacturer
SpaceX/Seattle
Mission
Operational Commercial Communications
Bus & Motor
STARLINK V2MO, Unknown motor
Mass
575 kg wet, ~530 kg dry
Launch date (UTC)
2025-04-07 (5 months ago)
Launch vehicle
FALCON 9
Launch site
Air Force Western Test Range (AFWTR)
Object type
Payload
Rocket body
Debris
Shape & HBR
Box + 1 Pan, 14.5 m
Radar Cross Section
41.120 m², Large (>1 m²)

Expand to show TLE details & history
Last TLE update: 1 day ago

TLE from 1 day ago
0 STARLINK-33803
1 63517U 25071AA  25259.64123095  .00034046  00000-0  11567-2 0  9999
2 63517  53.1558 228.2176 0001693  92.6580 267.4615 15.30190595 26128
Epoch: 2025-09-16T15:23Z
TLE epoch observation values (Epoch: 2025-09-16T15:23:22.354Z)
Latitude
0.00004°
Longitude
1.54587°
Altitude
476.194 km
Speed
7.629 km/s
True Right ascension
15h 12m 52s
True Declination
0° 00' 00"
Sunlit
Object was in daylight at epoch
Visualization orbit readout
Latitude
Unknown
Longitude
Unknown
Altitude
Unknown
Speed
Unknown
Apparent Right ascension
Unknown
Apparent Declination
Unknown
Sunlit
N/A
Visualization observer readout
Local Sidereal Time
13:36:45
Azimuth
Unknown
Elevation
Unknown
Doppler factor
Unknown
Orbital elements
Apogee altitude
476.661 km
Perigee altitude
474.34 km
Semi-major axis
6,853.637 km
Eccentricity
0.00017
Inclination
53.1558°
RAAN
228.2176°
Arg. of periapsis
92.658°
True anomaly
267.44212°
Mean anomaly
267.4615°
Eccentric anomaly
267.45181°
Mean motion
3.82526 °/min
Orbital period
94.11 mins
BSTAR
0.0011567
Loading maneuver chart data...
Computing Atmospheric mass density...
Loading historical data...
Loading historical data...
Loading historical data...
Loading historical data...
Loading historical data...
Loading historical data...
Loading historical data...

Documentation

Showing up to 5 results
|